Simultaneous Nadir Overpasses (SNOs) Predictions

Prediction of SNOs between NOAA-20 and AQUA Satellite Orbit:

Table of predicted SNOs for the next 14.0 days since TLE Epoch: 10/17/2020
Index Date (NOAA-20) Time (NOAA-20) Lat,Lon (NOAA-20) SZA (NOAA-20 ) Date (AQUA) Time (AQUA) Lat,Lon (AQUA) SZA (AQUA ) Distance(km) Time Diff (sec)
1 10/19/2020 14:29:29 -76.02, 21.61 73.59 10/19/2020 14:29:49 -76.02, 21.57 73.60 0.97 20
2 10/19/2020 15:19:56 76.79,-168.28 105.54 10/19/2020 15:18:58 76.80,-168.20 105.57 2.12 58
3 10/22/2020 05:55:53 75.41, -31.92 108.00 10/22/2020 05:57:01 75.41, -31.98 107.95 1.87 68
4 10/22/2020 06:46:18 -76.38, 138.63 73.10 10/22/2020 06:46:09 -76.38, 138.61 73.08 0.60 9
5 10/24/2020 22:12:42 75.78, 85.00 108.48 10/24/2020 22:13:21 75.77, 84.96 108.45 1.44 39
6 10/24/2020 23:03:07 -76.73,-104.28 72.62 10/24/2020 23:02:29 -76.73,-104.31 72.58 0.75 38
7 10/27/2020 14:29:30 76.18,-157.87 108.89 10/27/2020 14:29:40 76.18,-157.92 108.89 1.48 10
8 10/27/2020 15:19:56 -77.08, 12.86 72.15 10/27/2020 15:18:49 -77.07, 12.81 72.08 1.39 67
9 10/30/2020 05:55:58 -75.44, 148.15 69.44 10/30/2020 05:56:56 -75.44, 148.12 69.49 0.89 58
